Погода в Крыжановке

Украина / Одесская область     46°33′37″N   30°47′21″E
темп.,
°C
ветер,
м/с
пор.,
м/с
влажн.,
%
обл.,
%
осадки,
мм/ч
давл.,
гПа
погр.,
м
16 сентября, чт
чт1600:00+21с344727 0.0 1017175
03:00+19всв345574 0.0 1018199
06:00+18всв344595 0.0 1018183
09:00+19всв333894 0.0 1018326
12:00+21вюв33330 0.0 1019656
15:00+21ююв43355 0.0 1018654
18:00+21ю44395 0.0 1017301
21:00+19ююз34505 0.0 1018184
17 сентября, пт
пт1700:00+19юз34545 0.0 1018138
03:00+18юз23605 0.0 1017111
06:00+18ю236417 0.0 1016150
09:00+21ююв5656100 0.0 1016547
12:00+22ю775485 0.0 1015761
15:00+22ю895771 0.0 1013830
18:00+21ю81069100 0.0 1012617
21:00+20ю81276100 0.0 1011560
18 сентября, сб
сб1800:00+21ю71276100 0.0 1011639
03:00+21ю71277100 0.0 1010702
06:00+20ю81276100 0.1 1008715
09:00+21ю81078100 0.1 1008742
12:00+21юз457999 2.4 1008468
15:00+23ю3368100 4.4 1008729
18:00+22ююз2367100 2.3 1008263
21:00+21с246772 2.4 1009148
19 сентября, вс
вс1900:00+20с347199 0.0 1009125
03:00+19ссз236967 0.0 1009105
06:00+18с3371100 0.0 1009111
09:00+18сз3373100 0.6 1010263
12:00+22зюз245291 0.2 1009825
15:00+24юз574132 0.2 10081644
18:00+24з89365 0.0 10081418
21:00+20ссз475181 0.0 1010319
20 сентября, пн
пн2000:00+18с456297 0.0 1010348
03:00+17с3365100 0.0 1010231
06:00+16с4467100 0.0 1009303
09:00+15ссз556538 0.0 1010450
12:00+16ссз6657100 0.0 1011720
15:00+19сз5641100 0.0 10101614
18:00+17сз984751 0.0 10111242
21:00+14сз79585 0.0 1013786